Regional Weather Roundup
Issued by NWS

Home | Current Version | Previous Version | Graphics & Text | Print | Product List | Glossary On
Versions: 1 2 3 4 5 6 7 8 9 10 11 12 13 14 15 16 17 18 19 20 21 22 23 24 25 26 27
000
ASUS45 KPSR 232210
RWRAZ

ARIZONA HOURLY REGIONAL WEATHER ROUNDUP
NATIONAL WEATHER SERVICE PHOENIX AZ
300 PM MST THU MAR 23 2017

NOTE: FAIR INDICATES FEW OR NO CLOUDS BELOW 12,000 FEET WITH NO
SIGNIFICANT WEATHER AND/OR OBSTRUCTIONS TO VISIBILITY.

AZZ001>003-036-232300-
NORTHWEST ARIZONA

CITY           SKY/WX    TMP DP  RH WIND       PRES   REMARKS
BULLHEAD CITY  MOSUNNY   72  34  25 CALM      29.95F
KINGMAN        CLOUDY    57  23  26 W17       30.00R
$$

AZZ004>008-015-016-018-232300-
NORTH CENTRAL ARIZONA

CITY           SKY/WX    TMP DP  RH WIND       PRES   REMARKS
GRAND CANYON   SNOW      34  31  88 VRB6G24   29.97R VSB 1/2 WCI  29
WILLIAMS       PTSUNNY   37  32  81 W15G25    29.97F WCI  28
PRESCOTT       CLOUDY    49  31  49 W23G32    29.99R
FLAGSTAFF      SNOW      31  30  96 W9G18     29.97R VSB 1/2 WCI  23
PAYSON         PTSUNNY   48  37  66 SW14G22   30.01F
PAGE           CLOUDY    55  32  41 W14G24    29.83S
$$

AZZ009>014-017-232300-
NORTHEAST ARIZONA

CITY           SKY/WX    TMP DP  RH WIND       PRES   REMARKS
WINSLOW        PTSUNNY   55  31  39 SW26G37   29.92R
SAINT JOHNS    PTSUNNY   46  33  60 SW23G35   29.90R
WINDOW ROCK    FLURRIES  37  30  75 W10       29.88S WCI  30
SHOW LOW       PTSUNNY   39  32  75 SW25G33   29.97S WCI  28
$$

AZZ023-232300-
GREATER PHOENIX AREA

CITY           SKY/WX    TMP DP  RH WIND       PRES   REMARKS
PHOENIX        PTSUNNY   71  35  26 W21G28    29.96F
BUCKEYE        MOSUNNY   68  34  28 W12G17    29.98F
GLENDALE       PTSUNNY   72  36  26 MISG      29.98F
LUKE AFB       MOSUNNY   70  35  27 W18G26    29.96S
DEER VALLEY    MOSUNNY   68  36  30 W18G30    29.96F
SCOTTSDALE     MOSUNNY   66  33  29 W14G22    29.98F
MESA-FALCON    PTSUNNY  N/A N/A N/A W14G25    29.95S
MESA-GATEWAY   PTSUNNY   66  36  32 W15G23    29.99S
CHANDLER       PTSUNNY   68  34  28 SW14G25   29.98S
$$

AZZ027-028-232300-
SOUTHWEST MARICOPA COUNTY AND PINAL COUNTY

CITY           SKY/WX    TMP DP  RH WIND       PRES   REMARKS
CASA GRANDE    NOT AVBL
GILA BEND      MOSUNNY   70  31  23 W20G29    29.99F
$$

AZZ503-504-507>509-232300-
SOUTHEAST ARIZONA

CITY           SKY/WX    TMP DP  RH WIND       PRES   REMARKS
TUCSON         SUNNY     68  28  22 W23       30.02R
DAVIS-MONTHAN  MOSUNNY   66  26  21 W18G30    30.01R
RYAN FIELD     SUNNY     66  28  24 W20G25    30.03S
NOGALES        MOSUNNY   63  23  21 W15G28    30.03S
SIERRA VISTA   MOSUNNY   59  18  20 W22G30    30.03S
DOUGLAS        MOSUNNY   62  22  21 NW20G31   29.99S
SAFFORD        RAIN      53  39  59 W16G37    29.95R
$$

AZZ020-021-025-026-031-232300-
SOUTHWEST ARIZONA

CITY           SKY/WX    TMP DP  RH WIND       PRES   REMARKS
YUMA           MOSUNNY   74  34  23 NW9       30.02F
$$

CAZ031-033-041-043-047-048-061-232300-
SOUTHERN CALIFORNIA

CITY           SKY/WX    TMP DP  RH WIND       PRES   REMARKS
DOWNTOWN L.A.  SUNNY     67  40  37 VRB5      30.10F
L.A. AIRPORT   MOSUNNY   64  41  42 W16G22    30.12F
SAN DIEGO      MOSUNNY   65  44  46 W10       30.17F
BURBANK        SUNNY     67  34  29 CALM      30.08F
ONTARIO        MOSUNNY   67  37  33 W10G17    30.09F
RIVERSIDE      MOSUNNY   67  39  35 W12G18    30.09F
PALM SPRINGS   SUNNY     77  34  21 NW17G26   30.01F
EL CENTRO NAS  MOSUNNY   77  28  16 VRB7      30.02F
IMPERIAL       SUNNY     77  34  21 NW13      30.00F
BLYTHE         SUNNY     76  28  17 NW13G18   29.98F
NEEDLES        CLOUDY    74  32  21 N5        29.96S
$$

NVZ020-UTZ003-232300-
SOUTHERN NEVADA-UTAH

CITY           SKY/WX    TMP DP  RH WIND       PRES   REMARKS
LAS VEGAS      PTSUNNY   71  25  17 NW22      29.94S
SALT LAKE CITY LGT RAIN  36  34  92 N5        29.95R WCI  32
$$

NMZ009-TXZ055-232300-
NEW MEXICO-WEST TEXAS

CITY           SKY/WX    TMP DP  RH WIND       PRES   REMARKS
ALBUQUERQUE    CLOUDY    48  31  51 W29G39    29.83R
EL PASO        PTSUNNY   72  24  16 W35G49    29.77F BLWGDUST
$$


........................KEY........................
SKY/WX - SKY CONDITION/WEATHER
TMP    - TEMPERATURE IN FAHRENHEIT
DP     - DEW POINT IN FAHRENHEIT
RH     - RELATIVE HUMIDITY IN PERCENT
WIND   - DIRECTION AND SPEED IN MILES PER HOUR (MPH)
VRB    - VARIABLE WIND DIRECTION
PRES   - MEAN SEA LEVEL PRESSURE IN INCHES OF MERCURY
         F - FALLING PRESSURE   R - RISING PRESSURE
         S - STEADY PRESSURE
VSB    - VISIBILITY IN MILES
HX     - HEAT INDEX IN FAHRENHEIT
WCI    - WIND CHILL INDEX IN FAHRENHEIT
TC     - TEMPERATURE IN CELSIUS WHICH IS ALSO KNOWN AS
         TEMPERATURE IN CENTIGRADE
AFB    - AIR FORCE BASE
         LUKE AFB IS LUKE AIR FORCE BASE
         DAVIS-MONTHAN IS DAVIS-MONTHAN AIR FORCE BASE
NAS    - NAVAL AIR STATION
         EL CENTRO NAS IS EL CENTRO NAVAL AIR STATION
N/A    - NOT AVAILABLE





USA.gov is the U.S. government's official web portal to all federal, state and local government web resources and services.